Time,TemperatureF,DewpointF,PressureIn,WindDirection,WindDirectionDegrees,WindSpeedMPH,WindSpeedGustMPH,Humidity,HourlyPrecipIn,Conditions,Clouds,dailyrainin,SolarRadiationWatts/m^2,SoftwareType,DateUTC
2013-08-05 00:04:00,58.7,56.0,30.02,East,93,3.0,6.0,91,0.00,,,0.00,0,weatherlink.com 1.10,2013-08-05 05:04:00,
2013-08-05 00:19:00,58.6,56.0,30.02,East,93,5.0,6.0,92,0.00,,,0.00,0,weatherlink.com 1.10,2013-08-05 05:19:00,
2013-08-05 00:34:00,58.2,56.0,30.02,East,93,6.0,6.0,92,0.00,,,0.00,0,weatherlink.com 1.10,2013-08-05 05:34:00,
2013-08-05 00:49:00,57.8,56.0,30.02,East,93,3.0,6.0,92,0.00,,,0.00,0,weatherlink.com 1.10,2013-08-05 05:49:00,
2013-08-05 01:04:00,56.9,55.0,30.01,East,94,7.0,7.0,92,0.00,,,0.00,0,weatherlink.com 1.10,2013-08-05 06:04:00,
2013-08-05 01:19:00,56.5,55.0,30.00,ESE,102,8.0,8.0,93,0.00,,,0.00,0,weatherlink.com 1.10,2013-08-05 06:19:00,
2013-08-05 01:34:00,56.6,55.0,30.00,ESE,119,7.0,9.0,94,0.00,,,0.00,0,weatherlink.com 1.10,2013-08-05 06:34:00,
2013-08-05 01:49:00,56.5,55.0,29.99,ESE,119,7.0,8.0,94,0.00,,,0.00,0,weatherlink.com 1.10,2013-08-05 06:49:00,
2013-08-05 02:04:00,56.2,55.0,29.98,ESE,123,7.0,9.0,94,0.00,,,0.00,0,weatherlink.com 1.10,2013-08-05 07:04:00,
2013-08-05 02:19:00,56.2,55.0,29.98,SE,129,5.0,7.0,95,0.00,,,0.00,0,weatherlink.com 1.10,2013-08-05 07:19:00,
2013-08-05 02:34:00,56.5,55.0,29.98,SE,133,6.0,8.0,94,0.00,,,0.00,0,weatherlink.com 1.10,2013-08-05 07:34:00,
2013-08-05 02:49:00,56.8,55.0,29.98,SE,136,4.0,7.0,94,0.00,,,0.00,0,weatherlink.com 1.10,2013-08-05 07:49:00,
2013-08-05 03:04:00,56.5,55.0,29.98,SE,136,4.0,8.0,95,0.00,,,0.00,0,weatherlink.com 1.10,2013-08-05 08:04:00,
2013-08-05 03:19:00,56.1,54.0,29.98,ESE,121,7.0,8.0,94,0.00,,,0.00,0,weatherlink.com 1.10,2013-08-05 08:19:00,
2013-08-05 03:34:00,56.0,55.0,29.98,SE,127,4.0,8.0,95,0.00,,,0.00,0,weatherlink.com 1.10,2013-08-05 08:34:00,
2013-08-05 03:49:00,55.9,55.0,29.97,SE,128,5.0,5.0,95,0.00,,,0.00,0,weatherlink.com 1.10,2013-08-05 08:49:00,
2013-08-05 04:19:00,55.7,54.0,29.96,SE,128,5.0,7.0,95,0.00,,,0.00,0,weatherlink.com 1.10,2013-08-05 09:19:00,
2013-08-05 04:34:00,55.7,54.0,29.97,SE,128,5.0,5.0,95,0.00,,,0.00,0,weatherlink.com 1.10,2013-08-05 09:34:00,
2013-08-05 04:49:00,55.6,54.0,29.97,SE,128,5.0,6.0,95,0.00,,,0.00,0,weatherlink.com 1.10,2013-08-05 09:49:00,
2013-08-05 05:04:00,55.9,55.0,29.95,ESE,123,7.0,8.0,95,0.00,,,0.00,0,weatherlink.com 1.10,2013-08-05 10:04:00,
2013-08-05 05:19:00,56.0,55.0,29.95,SE,127,5.0,7.0,95,0.00,,,0.00,0,weatherlink.com 1.10,2013-08-05 10:19:00,
2013-08-05 05:34:00,56.1,55.0,29.95,ESE,121,3.0,8.0,95,0.00,,,0.00,0,weatherlink.com 1.10,2013-08-05 10:34:00,
2013-08-05 05:50:00,56.2,55.0,29.95,SE,124,5.0,7.0,95,0.00,,,0.00,0,weatherlink.com 1.10,2013-08-05 10:50:00,
2013-08-05 06:05:00,56.3,55.0,29.96,SE,124,1.0,7.0,95,0.00,,,0.00,0,weatherlink.com 1.10,2013-08-05 11:05:00,
2013-08-05 06:34:00,56.7,55.0,29.97,ESE,118,3.0,7.0,95,0.00,,,0.00,5,weatherlink.com 1.10,2013-08-05 11:34:00,
2013-08-05 07:20:00,57.3,56.0,30.00,ESE,103,0.0,5.0,95,0.01,,,0.01,12,weatherlink.com 1.10,2013-08-05 12:20:00,
2013-08-05 07:35:00,57.7,56.0,29.99,SE,130,5.0,7.0,95,0.04,,,0.04,14,weatherlink.com 1.10,2013-08-05 12:35:00,
2013-08-05 07:49:00,58.3,57.0,29.97,SSE,148,8.0,9.0,95,0.09,,,0.09,23,weatherlink.com 1.10,2013-08-05 12:49:00,
2013-08-05 08:20:00,59.0,58.0,29.96,SSE,155,4.0,7.0,95,0.11,,,0.12,46,weatherlink.com 1.10,2013-08-05 13:20:00,
2013-08-05 08:35:00,59.0,58.0,29.97,SSE,155,1.0,6.0,96,0.08,,,0.12,32,weatherlink.com 1.10,2013-08-05 13:35:00,
2013-08-05 08:49:00,59.0,58.0,29.98,SE,135,1.0,4.0,96,0.02,,,0.12,26,weatherlink.com 1.10,2013-08-05 13:49:00,
2013-08-05 09:05:00,59.0,58.0,29.99,SE,135,1.0,3.0,96,0.03,,,0.15,23,weatherlink.com 1.10,2013-08-05 14:05:00,
2013-08-05 09:20:00,59.0,58.0,29.99,SE,135,3.0,4.0,96,0.08,,,0.20,14,weatherlink.com 1.10,2013-08-05 14:20:00,
2013-08-05 09:35:00,59.0,58.0,29.96,SSE,148,5.0,6.0,96,0.14,,,0.26,18,weatherlink.com 1.10,2013-08-05 14:35:00,
2013-08-05 10:05:00,60.2,59.0,29.89,SSW,196,8.0,13.0,97,0.17,,,0.33,250,weatherlink.com 1.10,2013-08-05 15:05:00,
2013-08-05 10:20:00,61.4,61.0,29.87,South,180,18.0,22.0,97,0.13,,,0.33,311,weatherlink.com 1.10,2013-08-05 15:20:00,
2013-08-05 10:35:00,63.3,63.0,29.88,SSW,194,10.0,20.0,97,0.07,,,0.33,378,weatherlink.com 1.10,2013-08-05 15:35:00,
2013-08-05 10:50:00,64.7,62.0,29.88,SSW,200,17.0,24.0,92,0.01,,,0.33,826,weatherlink.com 1.10,2013-08-05 15:50:00,
2013-08-05 11:05:00,65.6,62.0,29.87,SSW,198,17.0,21.0,87,0.00,,,0.33,520,weatherlink.com 1.10,2013-08-05 16:05:00,
2013-08-05 11:20:00,65.4,61.0,29.87,SSW,193,13.0,24.0,84,0.00,,,0.33,383,weatherlink.com 1.10,2013-08-05 16:20:00,
2013-08-05 11:35:00,67.0,62.0,29.88,South,185,8.0,20.0,84,0.00,,,0.33,722,weatherlink.com 1.10,2013-08-05 16:35:00,
2013-08-05 11:50:00,68.5,63.0,29.88,South,182,15.0,20.0,82,0.00,,,0.33,666,weatherlink.com 1.10,2013-08-05 16:50:00,
2013-08-05 12:05:00,68.6,64.0,29.88,South,182,16.0,22.0,84,0.00,,,0.33,796,weatherlink.com 1.10,2013-08-05 17:05:00,
2013-08-05 12:20:00,68.3,63.0,29.88,SSW,205,11.0,21.0,84,0.00,,,0.33,615,weatherlink.com 1.10,2013-08-05 17:20:00,
2013-08-05 12:50:00,68.7,64.0,29.87,South,188,12.0,19.0,84,0.00,,,0.33,455,weatherlink.com 1.10,2013-08-05 17:50:00,
2013-08-05 13:05:00,68.3,64.0,29.86,SSW,195,16.0,20.0,85,0.00,,,0.33,350,weatherlink.com 1.10,2013-08-05 18:05:00,
2013-08-05 13:35:00,68.0,63.0,29.86,South,179,11.0,20.0,85,0.00,,,0.33,362,weatherlink.com 1.10,2013-08-05 18:35:00,
2013-08-05 13:50:00,68.6,64.0,29.85,South,188,18.0,18.0,86,0.00,,,0.33,452,weatherlink.com 1.10,2013-08-05 18:50:00,
2013-08-05 14:05:00,70.3,65.0,29.85,South,180,14.0,22.0,84,0.00,,,0.33,775,weatherlink.com 1.10,2013-08-05 19:05:00,
2013-08-05 14:20:00,70.7,64.0,29.85,South,177,17.0,22.0,80,0.00,,,0.33,512,weatherlink.com 1.10,2013-08-05 19:20:00,
2013-08-05 14:35:00,69.0,63.0,29.86,SSW,194,12.0,18.0,81,0.00,,,0.33,211,weatherlink.com 1.10,2013-08-05 19:35:00,
2013-08-05 14:50:00,68.6,63.0,29.86,SSW,200,11.0,20.0,82,0.00,,,0.33,111,weatherlink.com 1.10,2013-08-05 19:50:00,
2013-08-05 15:36:00,65.9,63.0,29.83,SSW,205,8.0,17.0,90,0.29,,,0.62,142,weatherlink.com 1.10,2013-08-05 20:36:00,
2013-08-05 15:51:00,65.7,64.0,29.83,SSW,207,7.0,16.0,94,0.30,,,0.63,202,weatherlink.com 1.10,2013-08-05 20:51:00,
2013-08-05 16:06:00,65.7,64.0,29.82,South,175,10.0,12.0,94,0.38,,,0.71,202,weatherlink.com 1.10,2013-08-05 21:06:00,
2013-08-05 16:36:00,68.1,66.0,29.81,SSW,197,12.0,17.0,93,0.12,,,0.74,455,weatherlink.com 1.10,2013-08-05 21:36:00,
2013-08-05 16:51:00,68.5,66.0,29.81,SSW,202,9.0,17.0,90,0.11,,,0.74,148,weatherlink.com 1.10,2013-08-05 21:51:00,
2013-08-05 17:06:00,68.8,66.0,29.80,South,191,12.0,16.0,90,0.02,,,0.74,281,weatherlink.com 1.10,2013-08-05 22:06:00,
2013-08-05 17:36:00,69.2,66.0,29.80,SSW,192,16.0,17.0,88,0.00,,,0.74,188,weatherlink.com 1.10,2013-08-05 22:36:00,
2013-08-05 17:51:00,69.4,66.0,29.79,SSW,211,10.0,16.0,89,0.00,,,0.74,394,weatherlink.com 1.10,2013-08-05 22:51:00,
2013-08-05 18:06:00,68.8,66.0,29.78,SSW,211,9.0,16.0,89,0.00,,,0.74,128,weatherlink.com 1.10,2013-08-05 23:06:00,
2013-08-05 18:21:00,68.6,65.0,29.78,SSW,194,8.0,14.0,89,0.00,,,0.74,123,weatherlink.com 1.10,2013-08-05 23:21:00,
2013-08-05 18:51:00,69.6,66.0,29.78,SSW,211,7.0,14.0,88,0.00,,,0.74,139,weatherlink.com 1.10,2013-08-05 23:51:00,
2013-08-05 19:06:00,69.5,66.0,29.78,SW,227,12.0,16.0,88,0.00,,,0.74,174,weatherlink.com 1.10,2013-08-06 00:06:00,
2013-08-05 19:21:00,69.0,66.0,29.79,SSW,211,6.0,11.0,89,0.00,,,0.74,74,weatherlink.com 1.10,2013-08-06 00:21:00,
2013-08-05 19:36:00,68.7,66.0,29.79,SSW,205,6.0,8.0,90,0.00,,,0.74,19,weatherlink.com 1.10,2013-08-06 00:36:00,
2013-08-05 19:51:00,68.3,66.0,29.78,SSW,197,7.0,8.0,91,0.00,,,0.74,11,weatherlink.com 1.10,2013-08-06 00:51:00,
2013-08-05 20:51:00,67.8,66.0,29.79,SSW,196,4.0,5.0,93,0.00,,,0.74,0,weatherlink.com 1.10,2013-08-06 01:51:00,
2013-08-05 21:06:00,67.4,65.0,29.79,SSW,196,3.0,5.0,93,0.00,,,0.74,0,weatherlink.com 1.10,2013-08-06 02:06:00,
2013-08-05 21:21:00,67.2,66.0,29.79,SSW,196,3.0,5.0,94,0.00,,,0.74,0,weatherlink.com 1.10,2013-08-06 02:21:00,
2013-08-05 21:36:00,67.1,65.0,29.80,SSW,196,3.0,6.0,94,0.00,,,0.74,0,weatherlink.com 1.10,2013-08-06 02:36:00,
2013-08-05 21:51:00,66.9,66.0,29.80,SSW,196,4.0,5.0,95,0.00,,,0.74,0,weatherlink.com 1.10,2013-08-06 02:51:00,
2013-08-05 22:06:00,66.8,65.0,29.79,SSW,195,6.0,7.0,95,0.00,,,0.74,0,weatherlink.com 1.10,2013-08-06 03:06:00,
2013-08-05 22:21:00,66.5,65.0,29.79,SSW,195,4.0,7.0,95,0.00,,,0.74,0,weatherlink.com 1.10,2013-08-06 03:21:00,
2013-08-05 22:51:00,65.8,64.0,29.79,SSW,195,0.0,4.0,95,0.00,,,0.74,0,weatherlink.com 1.10,2013-08-06 03:51:00,
2013-08-05 23:06:00,65.4,64.0,29.78,SSW,196,0.0,2.0,95,0.00,,,0.74,0,weatherlink.com 1.10,2013-08-06 04:06:00,
2013-08-05 23:21:00,64.9,64.0,29.78,SSW,196,0.0,0.0,95,0.00,,,0.74,0,weatherlink.com 1.10,2013-08-06 04:21:00,
2013-08-05 23:36:00,64.7,63.0,29.78,SSW,195,1.0,4.0,95,0.00,,,0.74,0,weatherlink.com 1.10,2013-08-06 04:36:00,
2013-08-05 23:51:00,64.6,64.0,29.77,SSW,196,0.0,3.0,96,0.00,,,0.74,0,weatherlink.com 1.10,2013-08-06 04:51:00,